Location: Thompson
(55.7500°N, 97.8670°W)
Time: 02:04:31
(UTC-05:00)

Cosmos 1666 - Visible Passes

Search period start: 19 April 2014 00:00
Search period end: 29 April 2014 00:00
Orbit: 517 x 549 km, 82.5° (Epoch: 17 April)

Date Brightness Start Highest point End Pass type
(mag) Time Alt. Az. Time Alt. Az. Time Alt. Az.
19 Apr 4.2 01:46:57 10° N 01:50:21 29° ENE 01:51:12 26° E visible
19 Apr 3.5 03:22:58 10° NNW 03:26:30 35° W 03:26:34 35° W visible
20 Apr 4.3 01:37:22 10° N 01:40:44 28° ENE 01:41:36 25° E visible
20 Apr 3.4 03:13:21 10° NNW 03:16:54 36° W 03:16:58 36° W visible
21 Apr 4.3 01:27:47 10° N 01:31:07 27° ENE 01:32:01 24° E visible
21 Apr 3.4 03:03:43 10° NNW 03:07:18 37° W 03:07:22 37° W visible
22 Apr 4.4 01:18:10 10° N 01:21:28 26° ENE 01:22:25 23° E visible
22 Apr 3.4 02:54:04 10° NNW 02:57:41 39° W 02:57:46 39° W visible
23 Apr 4.4 01:08:33 10° N 01:11:48 25° ENE 01:12:48 23° E visible
23 Apr 3.3 02:44:24 10° NNW 02:48:02 41° W 02:48:10 40° W visible
24 Apr 4.4 00:58:54 10° N 01:02:07 24° ENE 01:03:12 22° E visible
24 Apr 3.2 02:34:43 10° NNW 02:38:23 42° W 02:38:33 42° WSW visible
25 Apr 4.5 00:49:15 10° N 00:52:26 24° ENE 00:53:34 21° E visible
25 Apr 3.2 02:25:01 10° NNW 02:28:43 44° W 02:28:56 44° WSW visible
26 Apr 4.5 00:39:35 10° N 00:42:43 23° ENE 00:43:57 20° E visible
26 Apr 3.1 02:15:18 10° NNW 02:19:01 46° W 02:19:18 45° WSW visible
27 Apr 4.6 00:29:54 10° N 00:32:59 22° ENE 00:34:19 19° E visible
27 Apr 3.1 02:05:34 10° NNW 02:09:19 48° W 02:09:41 46° WSW visible
28 Apr 4.6 00:20:12 10° NNE 00:23:15 22° ENE 00:24:41 18° E visible
28 Apr 3.0 01:55:50 10° NNW 01:59:36 50° W 02:00:02 47° WSW visible
